Карточка аэропорта UUEE

Внимание!
Информация на этой странице в стадии наполнения.
Если вы не увидели какой-то информации, или заметили неточность - пожалуйста сообщите нам!
Спасибо!
Команда XR-STAFF
Название аэропортаШереметьево
Название аэропорта (англ.)Sheremetyevo
Превышение630 ft. (192 m.)
Координаты55°58.416', 37°24.75'
Высота перехода10000 ft
Эшелон переходаFL110
Коды ответчика1501-1537
Зона ОрВДМосква РПИ (UUWV)
Данные METARUUEE 232130Z 31003MPS 290V350 CAVOK 10/M05 Q1004 R24L/CLRD62 R24C/CLRD62 NOSIG
Проноз погоды (TAF)UUEE 231952Z 2321/2421 30005MPS 9999 SCT035 TX10/2321Z TN04/2401Z TEMPO 2402/2415 29009G15MPS -SHRA BKN020CB
NOTAMshow/hide NOTAM
AWOS   TABLE

Информация о ВПП

ВПП Длина ВПП (м.) Покрытие Курс ВПП Частота ILS
06R3700Железобетон64109.1
24L3700Железобетон244110.5
06C3550Бетон64108.1
24C3550Бетон244111.3
06L3200Бетон64108.75
24R3200Бетон244109.35

Диспетчерские позиции

Позывной Наименование органа УВД Частота
UUEE_TWRШереметьево-Вышка118.700
UUEE_TWRШереметьево-Вышка131.500
UUEE_TWRШереметьево-Вышка119.300
UUEE_DELШереметьево-Деливери120.875
UUEE_DELШереметьево-Деливери128.600
UUEE_GNDШереметьево-Руление119.000
UUEE_GNDШереметьево-Руление121.800
UUEE_GNDШереметьево-Руление122.900
UUEE_R_APPШереметьево-Круг120.675
UUEE_R_APPШереметьево-Круг126.600
UUEE_R_APPШереметьево-Круг118.100
UUEE_R_APPШереметьево-Круг135.175
UUEE_R_APPШереметьево-Круг122.700



Спутниковое изображение